Darstellungsparameter: Aktuell verwendete Einstellungen:
Skalierung der Graphiken ... ?
xyx+y,   Skalierungsfaktor:      Skalierung: Modus: x, Faktor: 1
Darstellungszeitraum ... ?
Vom - - bis: - -   Zeitraum: 24.07.2019 - 25.07.2019
Min/Max/Avg-Anzeige ... ?
Zeige MMA aktuell
Zeige MMA Monat
Zeige MMA alles
Zeige --A aktuell
Zeige --A Monat
Zeige --A alles
Keine MMA-Anzeige
MMA:
Keine MMA-Graphiken
MMA-Basis: 24.07.2019 - 25.07.2019
Quicknavigation für Darstellung... ?
Tage:      1T, 2T, 3T, 5T -1T -2T -3T -5T +1T +2T +3T +5T
Wochen: 1W, 2W, 3W -1W -2W -3W +1W +2W +3W
Monate: 1M, 3M, 6M -1M -3M -6M +1M +3M +6M
Jahre:    1J, 3J, 5J, 10J -1J -3J -5J -10J +1J +3J +5J +10J
Nutze für die Darstellung ... ?
Originaldaten oder Mittelwerte auf ...
Stundenbasis Tagesbasis Wochenbasis
Monatsbasis Jahresbasis      Datenbasis: Original-Daten
Darstellen als:
Statistik (Auto) Statistik J:M      Darstellung:
Zur Graphik,    zurück zur Übersicht aller Sensoren.
 
Tabellarische Datenbersicht: ?
 
Sensor: Nr:Datum:Temp:Feuchte:Taupunkt:
Aussen-T/F 1 24-07-2019 00:00:00 22.1 C 69 % 16.15 C
2 24-07-2019 00:05:00 21.9 C 70 % 16.18 C
3 24-07-2019 00:10:00 21.8 C 70 % 16.09 C
4 24-07-2019 00:15:00 21.7 C 70 % 15.99 C
5 24-07-2019 00:20:00 21.6 C 71 % 16.12 C
6 24-07-2019 00:25:00 21.4 C 71 % 15.93 C
7 24-07-2019 00:30:00 21.4 C 72 % 16.14 C
8 24-07-2019 00:35:00 21.3 C 72 % 16.05 C
9 24-07-2019 00:40:00 21.2 C 73 % 16.17 C
10 24-07-2019 00:45:00 21.1 C 73 % 16.07 C
11 24-07-2019 00:50:00 20.9 C 73 % 15.88 C
12 24-07-2019 00:55:00 20.9 C 74 % 16.09 C
13 24-07-2019 01:00:00 20.8 C 74 % 16 C
14 24-07-2019 01:05:00 20.7 C 76 % 16.32 C
15 24-07-2019 01:10:00 20.7 C 76 % 16.32 C
16 24-07-2019 01:15:00 20.6 C 76 % 16.22 C
17 24-07-2019 01:20:00 20.6 C 76 % 16.22 C
18 24-07-2019 01:25:00 20.4 C 76 % 16.03 C
19 24-07-2019 01:30:00 20.3 C 77 % 16.14 C
20 24-07-2019 01:35:00 20.2 C 77 % 16.04 C
21 24-07-2019 01:40:00 20.1 C 77 % 15.94 C
22 24-07-2019 01:45:00 19.9 C 77 % 15.75 C
23 24-07-2019 01:50:00 19.8 C 77 % 15.65 C
24 24-07-2019 01:55:00 19.7 C 78 % 15.76 C
25 24-07-2019 02:00:00 19.7 C 78 % 15.76 C
Sensor: Nr:Datum:Temp:Feuchte:Taupunkt:
Aussen-T/F 26 24-07-2019 02:05:00 19.6 C 78 % 15.66 C
27 24-07-2019 02:10:00 19.5 C 78 % 15.56 C
28 24-07-2019 02:15:00 19.5 C 78 % 15.56 C
29 24-07-2019 02:20:00 19.4 C 78 % 15.47 C
30 24-07-2019 02:25:00 19.4 C 79 % 15.66 C
31 24-07-2019 02:30:00 19.3 C 79 % 15.57 C
32 24-07-2019 02:35:00 19.2 C 79 % 15.47 C
33 24-07-2019 02:40:00 19.1 C 80 % 15.57 C
34 24-07-2019 02:45:00 19.1 C 80 % 15.57 C
35 24-07-2019 02:50:00 19 C 80 % 15.47 C
36 24-07-2019 02:55:00 18.9 C 81 % 15.57 C
37 24-07-2019 03:00:00 18.9 C 81 % 15.57 C
38 24-07-2019 03:05:00 19.1 C 81 % 15.76 C
39 24-07-2019 03:10:00 19.1 C 80 % 15.57 C
40 24-07-2019 03:15:00 18.9 C 80 % 15.38 C
41 24-07-2019 03:20:00 18.8 C 80 % 15.28 C
42 24-07-2019 03:25:00 18.7 C 81 % 15.37 C
43 24-07-2019 03:30:00 18.6 C 82 % 15.47 C
44 24-07-2019 03:35:00 18.5 C 83 % 15.56 C
45 24-07-2019 03:40:00 18.4 C 83 % 15.46 C
46 24-07-2019 03:45:00 18.3 C 83 % 15.36 C
47 24-07-2019 03:50:00 18.2 C 83 % 15.27 C
48 24-07-2019 03:55:00 18.1 C 84 % 15.35 C
49 24-07-2019 04:00:00 18.1 C 84 % 15.35 C
50 24-07-2019 04:05:00 18 C 84 % 15.26 C
Sensor: Nr:Datum:Temp:Feuchte:Taupunkt:
Aussen-T/F 51 24-07-2019 04:10:00 17.9 C 84 % 15.16 C
52 24-07-2019 04:15:00 17.9 C 84 % 15.16 C
53 24-07-2019 04:20:00 17.8 C 84 % 15.06 C
54 24-07-2019 04:25:00 17.8 C 84 % 15.06 C
55 24-07-2019 04:30:00 17.8 C 85 % 15.25 C
56 24-07-2019 04:35:00 17.7 C 85 % 15.15 C
57 24-07-2019 04:40:00 17.7 C 85 % 15.15 C
58 24-07-2019 04:45:00 17.6 C 85 % 15.05 C
59 24-07-2019 04:50:00 17.5 C 85 % 14.95 C
60 24-07-2019 04:55:00 17.4 C 86 % 15.03 C
61 24-07-2019 05:00:00 17.4 C 86 % 15.03 C
62 24-07-2019 05:05:00 17.4 C 86 % 15.03 C
63 24-07-2019 05:10:00 17.3 C 86 % 14.94 C
64 24-07-2019 05:15:00 17.3 C 87 % 15.12 C
65 24-07-2019 05:20:00 17.3 C 87 % 15.12 C
66 24-07-2019 05:25:00 17.2 C 87 % 15.02 C
67 24-07-2019 05:30:00 17.2 C 87 % 15.02 C
68 24-07-2019 05:35:00 17.2 C 88 % 15.2 C
69 24-07-2019 05:40:00 17.2 C 88 % 15.2 C
70 24-07-2019 05:45:00 17.1 C 88 % 15.1 C
71 24-07-2019 05:50:00 17.1 C 87 % 14.92 C
72 24-07-2019 05:55:00 17.1 C 88 % 15.1 C
73 24-07-2019 06:00:00 17.1 C 88 % 15.1 C
74 24-07-2019 06:05:00 17.1 C 88 % 15.1 C
75 24-07-2019 06:10:00 17.1 C 88 % 15.1 C
Sensor: Nr:Datum:Temp:Feuchte:Taupunkt:
Aussen-T/F 76 24-07-2019 06:15:00 17.1 C 88 % 15.1 C
77 24-07-2019 06:20:00 17 C 88 % 15 C
78 24-07-2019 06:25:00 17.1 C 88 % 15.1 C
79 24-07-2019 06:30:00 17.1 C 88 % 15.1 C
80 24-07-2019 06:35:00 17 C 88 % 15 C
81 24-07-2019 06:40:00 17 C 88 % 15 C
82 24-07-2019 06:45:00 17.1 C 89 % 15.27 C
83 24-07-2019 06:50:00 17.1 C 89 % 15.27 C
84 24-07-2019 06:55:00 17.1 C 89 % 15.27 C
85 24-07-2019 07:00:00 17.1 C 90 % 15.45 C
86 24-07-2019 07:05:00 17.1 C 90 % 15.45 C
87 24-07-2019 07:10:00 17.1 C 90 % 15.45 C
88 24-07-2019 07:15:00 17.1 C 90 % 15.45 C
89 24-07-2019 07:20:00 17.2 C 90 % 15.55 C
90 24-07-2019 07:25:00 17.2 C 90 % 15.55 C
91 24-07-2019 07:30:00 17.3 C 90 % 15.64 C
92 24-07-2019 07:35:00 17.3 C 90 % 15.64 C
93 24-07-2019 07:40:00 17.3 C 90 % 15.64 C
94 24-07-2019 07:45:00 17.4 C 90 % 15.74 C
95 24-07-2019 07:50:00 17.5 C 90 % 15.84 C
96 24-07-2019 07:55:00 17.6 C 90 % 15.94 C
97 24-07-2019 08:00:00 17.6 C 90 % 15.94 C
98 24-07-2019 08:05:00 17.7 C 90 % 16.04 C
99 24-07-2019 08:10:00 17.8 C 90 % 16.14 C
100 24-07-2019 08:15:00 18 C 89 % 16.16 C
Sensor: Nr:Datum:Temp:Feuchte:Taupunkt:
Aussen-T/F 101 24-07-2019 08:20:00 18.2 C 89 % 16.36 C
102 24-07-2019 08:25:00 18.3 C 89 % 16.46 C
103 24-07-2019 08:30:00 18.4 C 89 % 16.55 C
104 24-07-2019 08:35:00 18.5 C 88 % 16.48 C
105 24-07-2019 08:40:00 18.6 C 88 % 16.57 C
106 24-07-2019 08:45:00 18.8 C 88 % 16.77 C
107 24-07-2019 08:50:00 18.9 C 88 % 16.87 C
108 24-07-2019 08:55:00 19.1 C 88 % 17.07 C
109 24-07-2019 09:00:00 19.2 C 88 % 17.16 C
110 24-07-2019 09:05:00 19.3 C 88 % 17.26 C
111 24-07-2019 09:10:00 19.5 C 88 % 17.46 C
112 24-07-2019 09:15:00 19.6 C 87 % 17.38 C
113 24-07-2019 09:20:00 19.8 C 87 % 17.57 C
114 24-07-2019 09:25:00 20.1 C 86 % 17.68 C
115 24-07-2019 09:30:00 20.3 C 86 % 17.88 C
116 24-07-2019 09:35:00 20.5 C 85 % 17.89 C
117 24-07-2019 09:40:00 20.7 C 84 % 17.9 C
118 24-07-2019 09:45:00 20.9 C 83 % 17.9 C
119 24-07-2019 09:50:00 21.3 C 82 % 18.1 C
120 24-07-2019 09:55:00 21.6 C 80 % 18 C
121 24-07-2019 10:00:00 21.9 C 78 % 17.89 C
122 24-07-2019 10:05:00 22.3 C 79 % 18.48 C
123 24-07-2019 10:10:00 22.6 C 77 % 18.36 C
124 24-07-2019 10:15:00 22.8 C 75 % 18.14 C
125 24-07-2019 10:20:00 23.1 C 74 % 18.21 C
Sensor: Nr:Datum:Temp:Feuchte:Taupunkt:
Aussen-T/F 126 24-07-2019 10:25:00 23.6 C 73 % 18.48 C
127 24-07-2019 10:30:00 24 C 72 % 18.64 C
128 24-07-2019 10:35:00 24.3 C 71 % 18.7 C
129 24-07-2019 10:40:00 24.6 C 69 % 18.53 C
130 24-07-2019 10:45:00 24.9 C 67 % 18.35 C
131 24-07-2019 10:50:00 25.3 C 67 % 18.73 C
132 24-07-2019 10:55:00 25.6 C 67 % 19.01 C
133 24-07-2019 11:00:00 25.8 C 67 % 19.2 C
134 24-07-2019 11:05:00 26 C 64 % 18.66 C
135 24-07-2019 11:10:00 26.3 C 66 % 19.44 C
136 24-07-2019 11:15:00 26.6 C 65 % 19.48 C
137 24-07-2019 11:20:00 26.8 C 60 % 18.38 C
138 24-07-2019 11:25:00 27.1 C 60 % 18.66 C
139 24-07-2019 11:30:00 27.4 C 59 % 18.68 C
140 24-07-2019 11:35:00 27.9 C 58 % 18.87 C
141 24-07-2019 11:40:00 28.3 C 55 % 18.39 C
142 24-07-2019 11:45:00 28.6 C 54 % 18.38 C
143 24-07-2019 11:50:00 29 C 53 % 18.45 C
144 24-07-2019 11:55:00 29.4 C 53 % 18.82 C
145 24-07-2019 12:00:00 29.8 C 53 % 19.19 C
146 24-07-2019 12:05:00 30.3 C 48 % 18.06 C
147 24-07-2019 12:10:00 30.7 C 47 % 18.09 C
148 24-07-2019 12:15:00 31.2 C 44 % 17.49 C
149 24-07-2019 12:20:00 31.7 C 42 % 17.21 C
150 24-07-2019 12:25:00 32.1 C 43 % 17.94 C
Sensor: Nr:Datum:Temp:Feuchte:Taupunkt:
Aussen-T/F 151 24-07-2019 12:30:00 32.4 C 38 % 16.25 C
152 24-07-2019 12:35:00 32.8 C 37 % 16.19 C
153 24-07-2019 12:40:00 33 C 37 % 16.36 C
154 24-07-2019 12:45:00 33.3 C 38 % 17.05 C
155 24-07-2019 12:50:00 33.5 C 37 % 16.81 C
156 24-07-2019 12:55:00 33.7 C 36 % 16.55 C
157 24-07-2019 13:00:00 33.8 C 34 % 15.74 C
158 24-07-2019 13:05:00 33.9 C 31 % 14.39 C
159 24-07-2019 13:10:00 33.9 C 30 % 13.89 C
160 24-07-2019 13:15:00 33.9 C 31 % 14.39 C
161 24-07-2019 13:20:00 34 C 30 % 13.97 C
162 24-07-2019 13:25:00 34.1 C 29 % 13.54 C
163 24-07-2019 13:30:00 34.2 C 28 % 13.08 C
164 24-07-2019 13:35:00 34.3 C 29 % 13.71 C
165 24-07-2019 13:40:00 34.3 C 27 % 12.61 C
166 24-07-2019 13:45:00 34.4 C 27 % 12.7 C
167 24-07-2019 13:50:00 34.6 C 27 % 12.87 C
168 24-07-2019 13:55:00 34.7 C 26 % 12.38 C
169 24-07-2019 14:00:00 34.8 C 27 % 13.04 C
170 24-07-2019 14:05:00 34.8 C 26 % 12.46 C
171 24-07-2019 14:10:00 34.9 C 27 % 13.12 C
172 24-07-2019 14:15:00 35 C 27 % 13.21 C
173 24-07-2019 14:20:00 35.1 C 26 % 12.71 C
174 24-07-2019 14:25:00 35.3 C 27 % 13.46 C
175 24-07-2019 14:30:00 35.3 C 26 % 12.88 C
Sensor: Nr:Datum:Temp:Feuchte:Taupunkt:
Aussen-T/F 176 24-07-2019 14:35:00 35.5 C 26 % 13.05 C
177 24-07-2019 14:40:00 35.6 C 28 % 14.27 C
178 24-07-2019 14:45:00 35.8 C 27 % 13.88 C
179 24-07-2019 14:50:00 35.8 C 27 % 13.88 C
180 24-07-2019 14:55:00 35.9 C 28 % 14.53 C
181 24-07-2019 15:00:00 35.9 C 28 % 14.53 C
182 24-07-2019 15:05:00 36.1 C 30 % 15.77 C
183 24-07-2019 15:10:00 36.2 C 28 % 14.78 C
184 24-07-2019 15:15:00 36.3 C 27 % 14.31 C
185 24-07-2019 15:20:00 36.3 C 26 % 13.72 C
186 24-07-2019 15:25:00 36.4 C 25 % 13.21 C
187 24-07-2019 15:30:00 36.8 C 25 % 13.54 C
188 24-07-2019 15:35:00 37.2 C 23 % 12.6 C
189 24-07-2019 15:40:00 37.4 C 24 % 13.42 C
190 24-07-2019 15:45:00 37.9 C 26 % 15.07 C
191 24-07-2019 15:50:00 38.4 C 25 % 14.88 C
192 24-07-2019 15:55:00 38.8 C 25 % 15.22 C
193 24-07-2019 16:00:00 39.2 C 23 % 14.26 C
194 24-07-2019 16:05:00 39.3 C 22 % 13.65 C
195 24-07-2019 16:10:00 39.4 C 23 % 14.42 C
196 24-07-2019 16:15:00 39.4 C 25 % 15.72 C
197 24-07-2019 16:20:00 39.5 C 25 % 15.8 C
198 24-07-2019 16:25:00 39.7 C 24 % 15.33 C
199 24-07-2019 16:30:00 39.8 C 22 % 14.06 C
200 24-07-2019 16:35:00 39.7 C 22 % 13.98 C
Sensor: Nr:Datum:Temp:Feuchte:Taupunkt:
Aussen-T/F 201 24-07-2019 16:40:00 39.6 C 22 % 13.9 C
202 24-07-2019 16:45:00 39.7 C 23 % 14.67 C
203 24-07-2019 16:50:00 39.9 C 22 % 14.15 C
204 24-07-2019 16:55:00 39.9 C 24 % 15.5 C
205 24-07-2019 17:00:00 39.9 C 23 % 14.83 C
206 24-07-2019 17:05:00 40.1 C 27 % 17.52 C
207 24-07-2019 17:10:00 39.9 C 21 % 13.43 C
208 24-07-2019 17:15:00 39.9 C 23 % 14.83 C
209 24-07-2019 17:20:00 40 C 22 % 14.23 C
210 24-07-2019 17:25:00 39.9 C 22 % 14.15 C
211 24-07-2019 17:30:00 39.8 C 22 % 14.06 C
212 24-07-2019 17:35:00 39.5 C 23 % 14.5 C
213 24-07-2019 17:40:00 39.3 C 22 % 13.65 C
214 24-07-2019 17:45:00 39 C 23 % 14.09 C
215 24-07-2019 17:50:00 38.9 C 23 % 14.01 C
216 24-07-2019 17:55:00 39.1 C 24 % 14.83 C
217 24-07-2019 18:00:00 39.4 C 23 % 14.42 C
218 24-07-2019 18:05:00 39.6 C 24 % 15.25 C
219 24-07-2019 18:10:00 39.8 C 22 % 14.06 C
220 24-07-2019 18:15:00 39.8 C 22 % 14.06 C
221 24-07-2019 18:20:00 39.4 C 22 % 13.74 C
222 24-07-2019 18:25:00 39.2 C 23 % 14.26 C
223 24-07-2019 18:30:00 39.2 C 22 % 13.57 C
224 24-07-2019 18:35:00 39.2 C 23 % 14.26 C
225 24-07-2019 18:40:00 39.1 C 23 % 14.17 C
Sensor: Nr:Datum:Temp:Feuchte:Taupunkt:
Aussen-T/F 226 24-07-2019 18:45:00 39.1 C 22 % 13.49 C
227 24-07-2019 18:50:00 39.1 C 23 % 14.17 C
228 24-07-2019 18:55:00 38.9 C 23 % 14.01 C
229 24-07-2019 19:00:00 38.8 C 22 % 13.24 C
230 24-07-2019 19:05:00 38.7 C 23 % 13.84 C
231 24-07-2019 19:10:00 38.6 C 27 % 16.25 C
232 24-07-2019 19:15:00 38.7 C 26 % 15.74 C
233 24-07-2019 19:20:00 38.8 C 23 % 13.92 C
234 24-07-2019 19:25:00 38.8 C 28 % 16.99 C
235 24-07-2019 19:30:00 38.7 C 29 % 17.46 C
236 24-07-2019 19:35:00 38.7 C 30 % 18 C
237 24-07-2019 19:40:00 38.4 C 31 % 18.26 C
238 24-07-2019 19:45:00 38.2 C 30 % 17.57 C
239 24-07-2019 19:50:00 37.9 C 31 % 17.83 C
240 24-07-2019 19:55:00 37.6 C 31 % 17.58 C
241 24-07-2019 20:00:00 37.1 C 34 % 18.61 C
242 24-07-2019 20:05:00 36.4 C 33 % 17.53 C
243 24-07-2019 20:10:00 35.6 C 34 % 17.31 C
244 24-07-2019 20:15:00 34.8 C 35 % 17.07 C
245 24-07-2019 20:20:00 33.9 C 38 % 17.58 C
246 24-07-2019 20:25:00 33.1 C 40 % 17.68 C
247 24-07-2019 20:30:00 32.4 C 42 % 17.83 C
248 24-07-2019 20:35:00 31.7 C 44 % 17.94 C
249 24-07-2019 20:40:00 31.2 C 44 % 17.49 C
250 24-07-2019 20:45:00 30.8 C 45 % 17.49 C
Sensor: Nr:Datum:Temp:Feuchte:Taupunkt:
Aussen-T/F 251 24-07-2019 20:50:00 30.4 C 45 % 17.13 C
252 24-07-2019 20:55:00 30.2 C 46 % 17.3 C
253 24-07-2019 21:00:00 29.9 C 47 % 17.36 C
254 24-07-2019 21:05:00 29.7 C 47 % 17.18 C
255 24-07-2019 21:10:00 29.4 C 48 % 17.24 C
256 24-07-2019 21:15:00 29.2 C 48 % 17.06 C
257 24-07-2019 21:20:00 29 C 49 % 17.2 C
258 24-07-2019 21:25:00 28.8 C 49 % 17.02 C
259 24-07-2019 21:30:00 28.7 C 49 % 16.93 C
260 24-07-2019 21:35:00 28.5 C 50 % 17.06 C
261 24-07-2019 21:40:00 28.3 C 49 % 16.56 C
262 24-07-2019 21:45:00 28.2 C 50 % 16.79 C
263 24-07-2019 21:50:00 28.1 C 50 % 16.7 C
264 24-07-2019 21:55:00 28.1 C 50 % 16.7 C
265 24-07-2019 22:00:00 27.9 C 50 % 16.51 C
266 24-07-2019 22:05:00 27.8 C 51 % 16.73 C
267 24-07-2019 22:10:00 27.8 C 51 % 16.73 C
268 24-07-2019 22:15:00 27.7 C 51 % 16.64 C
269 24-07-2019 22:20:00 27.6 C 51 % 16.55 C
270 24-07-2019 22:25:00 27.4 C 52 % 16.67 C
271 24-07-2019 22:30:00 27.3 C 52 % 16.58 C
272 24-07-2019 22:35:00 27.2 C 53 % 16.79 C
273 24-07-2019 22:40:00 27.1 C 53 % 16.7 C
274 24-07-2019 22:45:00 27 C 53 % 16.6 C
275 24-07-2019 22:50:00 26.9 C 53 % 16.51 C
Sensor: Nr:Datum:Temp:Feuchte:Taupunkt:
Aussen-T/F 276 24-07-2019 22:55:00 26.8 C 54 % 16.71 C
277 24-07-2019 23:00:00 26.8 C 54 % 16.71 C
278 24-07-2019 23:05:00 26.6 C 55 % 16.82 C
279 24-07-2019 23:10:00 26.4 C 56 % 16.92 C
280 24-07-2019 23:15:00 26.2 C 57 % 17.01 C
281 24-07-2019 23:20:00 25.9 C 58 % 17 C
282 24-07-2019 23:25:00 25.7 C 58 % 16.82 C
283 24-07-2019 23:30:00 25.4 C 58 % 16.54 C
284 24-07-2019 23:35:00 25.2 C 58 % 16.35 C
285 24-07-2019 23:40:00 25 C 60 % 16.7 C
286 24-07-2019 23:45:00 24.8 C 61 % 16.77 C
287 24-07-2019 23:50:00 24.6 C 62 % 16.84 C
288 24-07-2019 23:55:00 24.4 C 63 % 16.9 C
289 25-07-2019 00:00:00 24.3 C 62 % 16.55 C
290 25-07-2019 00:05:00 24 C 61 % 16.02 C
291 25-07-2019 00:10:00 23.9 C 63 % 16.43 C
292 25-07-2019 00:15:00 23.9 C 63 % 16.43 C
293 25-07-2019 00:20:00 23.8 C 63 % 16.33 C
294 25-07-2019 00:25:00 23.7 C 62 % 15.99 C
295 25-07-2019 00:30:00 23.6 C 62 % 15.89 C
296 25-07-2019 00:35:00 23.6 C 64 % 16.39 C
297 25-07-2019 00:40:00 23.4 C 64 % 16.2 C
298 25-07-2019 00:45:00 23.3 C 63 % 15.86 C
299 25-07-2019 00:50:00 23.4 C 64 % 16.2 C
300 25-07-2019 00:55:00 23.3 C 66 % 16.59 C
Sensor: Nr:Datum:Temp:Feuchte:Taupunkt:
Aussen-T/F 301 25-07-2019 01:00:00 23.2 C 65 % 16.26 C
302 25-07-2019 01:05:00 23.1 C 65 % 16.16 C
303 25-07-2019 01:10:00 22.9 C 66 % 16.21 C
304 25-07-2019 01:15:00 22.7 C 66 % 16.02 C
305 25-07-2019 01:20:00 22.6 C 67 % 16.16 C
306 25-07-2019 01:25:00 22.4 C 66 % 15.74 C
307 25-07-2019 01:30:00 22.3 C 67 % 15.88 C
308 25-07-2019 01:35:00 22.3 C 65 % 15.4 C
309 25-07-2019 01:40:00 22.3 C 68 % 16.11 C
310 25-07-2019 01:45:00 22.3 C 68 % 16.11 C
311 25-07-2019 01:50:00 22.2 C 68 % 16.01 C
312 25-07-2019 01:55:00 22.1 C 68 % 15.92 C
313 25-07-2019 02:00:00 22 C 69 % 16.05 C
314 25-07-2019 02:05:00 21.9 C 70 % 16.18 C
315 25-07-2019 02:10:00 21.8 C 70 % 16.09 C
316 25-07-2019 02:15:00 21.7 C 70 % 15.99 C
317 25-07-2019 02:20:00 21.7 C 70 % 15.99 C
318 25-07-2019 02:25:00 21.7 C 71 % 16.21 C
319 25-07-2019 02:30:00 21.6 C 70 % 15.89 C
320 25-07-2019 02:35:00 21.5 C 70 % 15.8 C
321 25-07-2019 02:40:00 21.4 C 71 % 15.93 C
322 25-07-2019 02:45:00 21.4 C 71 % 15.93 C
323 25-07-2019 02:50:00 21.3 C 72 % 16.05 C
324 25-07-2019 02:55:00 21.2 C 72 % 15.95 C
325 25-07-2019 03:00:00 21.2 C 72 % 15.95 C
Sensor: Nr:Datum:Temp:Feuchte:Taupunkt:
Aussen-T/F 326 25-07-2019 03:05:00 21.2 C 73 % 16.17 C
327 25-07-2019 03:10:00 21.2 C 73 % 16.17 C
328 25-07-2019 03:15:00 21.1 C 73 % 16.07 C
329 25-07-2019 03:20:00 20.9 C 74 % 16.09 C
330 25-07-2019 03:25:00 20.8 C 74 % 16 C
331 25-07-2019 03:30:00 20.8 C 74 % 16 C
332 25-07-2019 03:35:00 20.8 C 74 % 16 C
333 25-07-2019 03:40:00 20.8 C 74 % 16 C
334 25-07-2019 03:45:00 20.7 C 75 % 16.11 C
335 25-07-2019 03:50:00 20.6 C 75 % 16.01 C
336 25-07-2019 03:55:00 20.6 C 76 % 16.22 C
337 25-07-2019 04:00:00 20.4 C 76 % 16.03 C
338 25-07-2019 04:05:00 20.3 C 76 % 15.93 C
339 25-07-2019 04:10:00 20.2 C 77 % 16.04 C
340 25-07-2019 04:15:00 20.1 C 77 % 15.94 C
341 25-07-2019 04:20:00 19.9 C 78 % 15.95 C
342 25-07-2019 04:25:00 20.1 C 78 % 16.14 C
343 25-07-2019 04:30:00 20.1 C 78 % 16.14 C
344 25-07-2019 04:35:00 20.1 C 78 % 16.14 C
345 25-07-2019 04:40:00 20.1 C 78 % 16.14 C
346 25-07-2019 04:45:00 19.9 C 79 % 16.15 C
347 25-07-2019 04:50:00 19.9 C 79 % 16.15 C
348 25-07-2019 04:55:00 19.8 C 79 % 16.05 C
349 25-07-2019 05:00:00 19.7 C 79 % 15.96 C
350 25-07-2019 05:05:00 19.6 C 79 % 15.86 C
Sensor: Nr:Datum:Temp:Feuchte:Taupunkt:
Aussen-T/F 351 25-07-2019 05:10:00 19.6 C 80 % 16.06 C
352 25-07-2019 05:15:00 19.4 C 80 % 15.86 C
353 25-07-2019 05:20:00 19.4 C 80 % 15.86 C
354 25-07-2019 05:25:00 19.3 C 80 % 15.76 C
355 25-07-2019 05:30:00 19.3 C 80 % 15.76 C
356 25-07-2019 05:35:00 19.3 C 80 % 15.76 C
357 25-07-2019 05:40:00 19.2 C 80 % 15.67 C
358 25-07-2019 05:45:00 19.2 C 80 % 15.67 C
359 25-07-2019 05:50:00 19.2 C 81 % 15.86 C
360 25-07-2019 05:55:00 19.1 C 81 % 15.76 C
361 25-07-2019 06:00:00 19.1 C 82 % 15.96 C
362 25-07-2019 06:05:00 19.1 C 82 % 15.96 C
363 25-07-2019 06:10:00 19.1 C 82 % 15.96 C
364 25-07-2019 06:15:00 19.2 C 82 % 16.05 C
365 25-07-2019 06:20:00 19.2 C 82 % 16.05 C
366 25-07-2019 06:25:00 19.1 C 82 % 15.96 C
367 25-07-2019 06:30:00 19.2 C 82 % 16.05 C
368 25-07-2019 06:35:00 19.2 C 82 % 16.05 C
369 25-07-2019 06:40:00 19.2 C 82 % 16.05 C
370 25-07-2019 06:45:00 19.3 C 83 % 16.34 C
371 25-07-2019 06:50:00 19.3 C 83 % 16.34 C
372 25-07-2019 06:55:00 19.3 C 83 % 16.34 C
373 25-07-2019 07:00:00 19.3 C 83 % 16.34 C
374 25-07-2019 07:05:00 19.3 C 83 % 16.34 C
375 25-07-2019 07:10:00 19.4 C 84 % 16.63 C
Sensor: Nr:Datum:Temp:Feuchte:Taupunkt:
Aussen-T/F 376 25-07-2019 07:15:00 19.4 C 84 % 16.63 C
377 25-07-2019 07:20:00 19.4 C 84 % 16.63 C
378 25-07-2019 07:25:00 19.5 C 84 % 16.72 C
379 25-07-2019 07:30:00 19.6 C 84 % 16.82 C
380 25-07-2019 07:35:00 19.6 C 84 % 16.82 C
381 25-07-2019 07:40:00 19.7 C 84 % 16.92 C
382 25-07-2019 07:45:00 19.8 C 84 % 17.02 C
383 25-07-2019 07:50:00 19.8 C 84 % 17.02 C
384 25-07-2019 07:55:00 19.9 C 84 % 17.12 C
385 25-07-2019 08:00:00 20 C 83 % 17.02 C
386 25-07-2019 08:05:00 20.1 C 84 % 17.31 C
387 25-07-2019 08:10:00 20.2 C 83 % 17.22 C
388 25-07-2019 08:15:00 20.3 C 82 % 17.13 C
389 25-07-2019 08:20:00 20.5 C 83 % 17.51 C
390 25-07-2019 08:25:00 20.7 C 83 % 17.71 C
391 25-07-2019 08:30:00 20.8 C 83 % 17.81 C
392 25-07-2019 08:35:00 20.9 C 82 % 17.71 C
393 25-07-2019 08:40:00 21.1 C 83 % 18.1 C
394 25-07-2019 08:45:00 21.2 C 83 % 18.2 C
395 25-07-2019 08:50:00 21.4 C 82 % 18.2 C
396 25-07-2019 08:55:00 21.6 C 82 % 18.39 C
397 25-07-2019 09:00:00 21.7 C 81 % 18.3 C
398 25-07-2019 09:05:00 21.8 C 79 % 18 C
399 25-07-2019 09:10:00 22.1 C 81 % 18.69 C
400 25-07-2019 09:15:00 22.2 C 81 % 18.78 C
Sensor: Nr:Datum:Temp:Feuchte:Taupunkt:
Aussen-T/F 401 25-07-2019 09:20:00 22.3 C 78 % 18.28 C
402 25-07-2019 09:25:00 22.6 C 78 % 18.57 C
403 25-07-2019 09:30:00 22.8 C 77 % 18.56 C
404 25-07-2019 09:35:00 23.1 C 77 % 18.85 C
405 25-07-2019 09:40:00 23.3 C 75 % 18.62 C
406 25-07-2019 09:45:00 23.5 C 74 % 18.6 C
407 25-07-2019 09:50:00 23.7 C 72 % 18.35 C
408 25-07-2019 09:55:00 24 C 70 % 18.19 C
409 25-07-2019 10:00:00 24.3 C 70 % 18.48 C
410 25-07-2019 10:05:00 24.6 C 71 % 18.99 C
411 25-07-2019 10:10:00 24.9 C 70 % 19.05 C
412 25-07-2019 10:15:00 25.1 C 69 % 19.01 C
413 25-07-2019 10:20:00 25.3 C 68 % 18.97 C
414 25-07-2019 10:25:00 25.6 C 69 % 19.49 C
415 25-07-2019 10:30:00 25.9 C 67 % 19.3 C
416 25-07-2019 10:35:00 26.2 C 65 % 19.1 C
417 25-07-2019 10:40:00 26.6 C 63 % 18.97 C
418 25-07-2019 10:45:00 26.9 C 62 % 19 C
419 25-07-2019 10:50:00 27.2 C 63 % 19.54 C
420 25-07-2019 10:55:00 27.5 C 63 % 19.82 C
421 25-07-2019 11:00:00 27.8 C 61 % 19.59 C
422 25-07-2019 11:05:00 28.2 C 60 % 19.69 C
423 25-07-2019 11:10:00 28.6 C 56 % 18.96 C
424 25-07-2019 11:15:00 29.1 C 58 % 19.99 C
425 25-07-2019 11:20:00 29.4 C 54 % 19.12 C
Sensor: Nr:Datum:Temp:Feuchte:Taupunkt:
Aussen-T/F 426 25-07-2019 11:25:00 29.8 C 55 % 19.78 C
427 25-07-2019 11:30:00 30.1 C 54 % 19.76 C
428 25-07-2019 11:35:00 30.5 C 53 % 19.83 C
429 25-07-2019 11:40:00 30.8 C 50 % 19.17 C
430 25-07-2019 11:45:00 31.2 C 48 % 18.88 C
431 25-07-2019 11:50:00 31.6 C 47 % 18.91 C
432 25-07-2019 11:55:00 32.1 C 44 % 18.3 C
433 25-07-2019 12:00:00 32.6 C 41 % 17.63 C
434 25-07-2019 12:05:00 33 C 40 % 17.59 C
435 25-07-2019 12:10:00 33.4 C 38 % 17.14 C
436 25-07-2019 12:15:00 33.8 C 38 % 17.49 C
437 25-07-2019 12:20:00 34.3 C 35 % 16.63 C
438 25-07-2019 12:25:00 34.7 C 35 % 16.98 C
439 25-07-2019 12:30:00 34.9 C 35 % 17.16 C
440 25-07-2019 12:35:00 35.2 C 33 % 16.49 C
441 25-07-2019 12:40:00 35.3 C 33 % 16.58 C
442 25-07-2019 12:45:00 35.5 C 33 % 16.75 C
443 25-07-2019 12:50:00 35.7 C 33 % 16.92 C
444 25-07-2019 12:55:00 35.9 C 31 % 16.11 C
445 25-07-2019 13:00:00 36 C 32 % 16.7 C
446 25-07-2019 13:05:00 36.1 C 32 % 16.79 C
447 25-07-2019 13:10:00 36.2 C 32 % 16.87 C
448 25-07-2019 13:15:00 36.3 C 32 % 16.96 C
449 25-07-2019 13:20:00 36.3 C 30 % 15.94 C
450 25-07-2019 13:25:00 36.4 C 31 % 16.54 C
Sensor: Nr:Datum:Temp:Feuchte:Taupunkt:
Aussen-T/F 451 25-07-2019 13:30:00 36.4 C 31 % 16.54 C
452 25-07-2019 13:35:00 36.6 C 31 % 16.72 C
453 25-07-2019 13:40:00 36.7 C 31 % 16.8 C
454 25-07-2019 13:45:00 36.8 C 30 % 16.37 C
455 25-07-2019 13:50:00 36.9 C 31 % 16.97 C
456 25-07-2019 13:55:00 36.9 C 29 % 15.93 C
457 25-07-2019 14:00:00 36.9 C 30 % 16.46 C
458 25-07-2019 14:05:00 37.1 C 30 % 16.63 C
459 25-07-2019 14:10:00 37.2 C 29 % 16.18 C
460 25-07-2019 14:15:00 37.3 C 30 % 16.8 C
461 25-07-2019 14:20:00 37.4 C 29 % 16.35 C
462 25-07-2019 14:25:00 37.4 C 27 % 15.24 C
463 25-07-2019 14:30:00 37.4 C 30 % 16.89 C
464 25-07-2019 14:35:00 37.6 C 28 % 15.97 C
465 25-07-2019 14:40:00 37.6 C 29 % 16.52 C
466 25-07-2019 14:45:00 37.7 C 27 % 15.49 C
467 25-07-2019 14:50:00 37.7 C 29 % 16.61 C
468 25-07-2019 14:55:00 37.8 C 28 % 16.14 C
469 25-07-2019 15:00:00 37.9 C 28 % 16.23 C
470 25-07-2019 15:05:00 38.2 C 28 % 16.48 C
471 25-07-2019 15:10:00 38.3 C 28 % 16.57 C
472 25-07-2019 15:15:00 38.5 C 27 % 16.16 C
473 25-07-2019 15:20:00 38.7 C 26 % 15.74 C
474 25-07-2019 15:25:00 38.8 C 26 % 15.83 C
475 25-07-2019 15:30:00 38.9 C 26 % 15.91 C
Sensor: Nr:Datum:Temp:Feuchte:Taupunkt:
Aussen-T/F 476 25-07-2019 15:35:00 38.7 C 26 % 15.74 C
477 25-07-2019 15:40:00 38.8 C 26 % 15.83 C
478 25-07-2019 15:45:00 39.2 C 25 % 15.55 C
479 25-07-2019 15:50:00 39.6 C 26 % 16.5 C
480 25-07-2019 15:55:00 39.9 C 24 % 15.5 C
481 25-07-2019 16:00:00 40.1 C 23 % 15 C
482 25-07-2019 16:05:00 40.2 C 24 % 15.75 C
483 25-07-2019 16:10:00 40.2 C 25 % 16.39 C
484 25-07-2019 16:15:00 40.3 C 23 % 15.17 C
485 25-07-2019 16:20:00 40.4 C 24 % 15.91 C
486 25-07-2019 16:25:00 40.4 C 25 % 16.55 C
487 25-07-2019 16:30:00 40.4 C 23 % 15.25 C
488 25-07-2019 16:35:00 40.3 C 23 % 15.17 C
489 25-07-2019 16:40:00 40 C 23 % 14.92 C
490 25-07-2019 16:45:00 39.9 C 23 % 14.83 C
491 25-07-2019 16:50:00 39.9 C 25 % 16.13 C
492 25-07-2019 16:55:00 39.7 C 23 % 14.67 C
493 25-07-2019 17:00:00 39.8 C 24 % 15.41 C
494 25-07-2019 17:05:00 39.9 C 24 % 15.5 C
495 25-07-2019 17:10:00 40.3 C 23 % 15.17 C
496 25-07-2019 17:15:00 40.3 C 22 % 14.48 C
497 25-07-2019 17:20:00 40.1 C 22 % 14.31 C
498 25-07-2019 17:25:00 39.9 C 22 % 14.15 C
499 25-07-2019 17:30:00 39.6 C 22 % 13.9 C
500 25-07-2019 17:35:00 39.5 C 22 % 13.82 C
Sensor: Nr:Datum:Temp:Feuchte:Taupunkt:
Aussen-T/F 501 25-07-2019 17:40:00 39.5 C 22 % 13.82 C
502 25-07-2019 17:45:00 39.5 C 22 % 13.82 C
503 25-07-2019 17:50:00 39.6 C 23 % 14.59 C
504 25-07-2019 17:55:00 39.7 C 23 % 14.67 C
505 25-07-2019 18:00:00 39.6 C 23 % 14.59 C
506 25-07-2019 18:05:00 39.4 C 23 % 14.42 C
507 25-07-2019 18:10:00 39.4 C 22 % 13.74 C
508 25-07-2019 18:15:00 39.4 C 23 % 14.42 C
509 25-07-2019 18:20:00 39.3 C 22 % 13.65 C
510 25-07-2019 18:25:00 39.3 C 23 % 14.34 C
511 25-07-2019 18:30:00 39.2 C 23 % 14.26 C
512 25-07-2019 18:35:00 39.1 C 23 % 14.17 C
513 25-07-2019 18:40:00 38.8 C 23 % 13.92 C
514 25-07-2019 18:45:00 38.6 C 24 % 14.42 C
515 25-07-2019 18:50:00 38.6 C 24 % 14.42 C
516 25-07-2019 18:55:00 38.4 C 29 % 17.2 C
517 25-07-2019 19:00:00 38.3 C 25 % 14.8 C
518 25-07-2019 19:05:00 38.2 C 31 % 18.09 C
519 25-07-2019 19:10:00 38 C 28 % 16.31 C
520 25-07-2019 19:15:00 37.8 C 33 % 18.74 C
521 25-07-2019 19:20:00 37.4 C 32 % 17.91 C
522 25-07-2019 19:25:00 37 C 33 % 18.05 C
523 25-07-2019 19:30:00 36.6 C 33 % 17.7 C
524 25-07-2019 19:35:00 36.2 C 35 % 18.29 C
525 25-07-2019 19:40:00 35.7 C 36 % 18.3 C
Sensor: Nr:Datum:Temp:Feuchte:Taupunkt:
Aussen-T/F 526 25-07-2019 19:45:00 35.3 C 39 % 19.23 C
527 25-07-2019 19:50:00 34.9 C 38 % 18.46 C
528 25-07-2019 19:55:00 34.6 C 38 % 18.2 C
529 25-07-2019 20:00:00 34.3 C 41 % 19.15 C
530 25-07-2019 20:05:00 33.9 C 41 % 18.79 C
531 25-07-2019 20:10:00 33.7 C 40 % 18.22 C
532 25-07-2019 20:15:00 33.4 C 40 % 17.95 C
533 25-07-2019 20:20:00 33.2 C 42 % 18.55 C
534 25-07-2019 20:25:00 32.9 C 41 % 17.9 C
535 25-07-2019 20:30:00 32.7 C 42 % 18.1 C
536 25-07-2019 20:35:00 32.4 C 42 % 17.83 C
537 25-07-2019 20:40:00 32.2 C 43 % 18.03 C
538 25-07-2019 20:45:00 31.9 C 43 % 17.76 C
539 25-07-2019 20:50:00 31.7 C 44 % 17.94 C
540 25-07-2019 20:55:00 31.5 C 43 % 17.4 C
541 25-07-2019 21:00:00 31.3 C 44 % 17.58 C
542 25-07-2019 21:05:00 31.1 C 44 % 17.4 C
543 25-07-2019 21:10:00 30.9 C 45 % 17.58 C
544 25-07-2019 21:15:00 30.7 C 44 % 17.04 C
545 25-07-2019 21:20:00 30.5 C 44 % 16.86 C
546 25-07-2019 21:25:00 30.3 C 45 % 17.04 C
547 25-07-2019 21:30:00 30.2 C 45 % 16.95 C
548 25-07-2019 21:35:00 30.1 C 45 % 16.86 C
549 25-07-2019 21:40:00 29.9 C 45 % 16.68 C
550 25-07-2019 21:45:00 29.8 C 45 % 16.59 C
Sensor: Nr:Datum:Temp:Feuchte:Taupunkt:
Aussen-T/F 551 25-07-2019 21:50:00 29.7 C 45 % 16.5 C
552 25-07-2019 21:55:00 29.6 C 45 % 16.41 C
553 25-07-2019 22:00:00 29.4 C 45 % 16.23 C
554 25-07-2019 22:05:00 29.3 C 46 % 16.48 C
555 25-07-2019 22:10:00 29.2 C 46 % 16.39 C
556 25-07-2019 22:15:00 29.1 C 47 % 16.64 C
557 25-07-2019 22:20:00 28.9 C 46 % 16.12 C
558 25-07-2019 22:25:00 28.8 C 48 % 16.69 C
559 25-07-2019 22:30:00 28.7 C 48 % 16.6 C
560 25-07-2019 22:35:00 28.5 C 48 % 16.42 C
561 25-07-2019 22:40:00 28.4 C 48 % 16.33 C
562 25-07-2019 22:45:00 28.3 C 48 % 16.24 C
563 25-07-2019 22:50:00 28.3 C 49 % 16.56 C
564 25-07-2019 22:55:00 28.2 C 48 % 16.15 C
565 25-07-2019 23:00:00 28.1 C 49 % 16.38 C
566 25-07-2019 23:05:00 28 C 48 % 15.97 C
567 25-07-2019 23:10:00 27.9 C 49 % 16.2 C
568 25-07-2019 23:15:00 27.8 C 48 % 15.78 C
569 25-07-2019 23:20:00 27.8 C 49 % 16.11 C
570 25-07-2019 23:25:00 27.7 C 50 % 16.33 C
571 25-07-2019 23:30:00 27.6 C 49 % 15.92 C
572 25-07-2019 23:35:00 27.4 C 50 % 16.06 C
573 25-07-2019 23:40:00 27.3 C 50 % 15.97 C
574 25-07-2019 23:45:00 27.2 C 50 % 15.87 C
575 25-07-2019 23:50:00 27.1 C 51 % 16.09 C
Sensor: Nr:Datum:Temp:Feuchte:Taupunkt:
Aussen-T/F 576 25-07-2019 23:55:00 26.9 C 53 % 16.51 C

Legende:
   Min
   Max


Maximal/Minimal-Werte vom 24.07.2019 - 25.07.2019

Sensor Min Max Avg
Temp
(Aussen-T/F)
17 °C
24-07-2019  06:20:00
40.4 °C
25-07-2019  16:20:00
27.87 °C
Feuchte
(Aussen-T/F)
21 %
24-07-2019  17:10:00
90 %
24-07-2019  07:00:00
55.61 %
Taupunkt
(Aussen-T/F)
12.38 C
24-07-2019  13:55:00
19.99 C
25-07-2019  11:15:00
16.24 C

Die Daten stammen von einer Davis Vantage Pro 2 Wetter-Station und werden unter Linux mit der Software wview2wettercgi und aufbereitet. Alle Angaben erfolgen ohne Gewähr für ihre Vollständigkeit oder Richtigkeit.
Kontakt: Rainer Krienke krienke@uni-koblenz.de . Meine Webseiten an der Uni Koblenz oder privat.
Version: $Revision: 0.78 $